When you browse on this site, cookies collect data to enhance your experience and personalize the content and advertising you see.
Visit our Privacy Policy to learn more. By continuing to use the site, you agree to this use of cookies and data.
  • In Hungary
  • List of Countries
  • For 7 days
  • Water Temperature
  • Satellite Maps
  • Weather Map
  • News
  • Weather Widgets
  • user-avatar
    Login

    Hourly Weather Hurghada

    Today, 19 April, Friday

    Time Temperature Precipitation Wind Pressure Humidity
    00:00 +16°C° 0 mm 2 mps 684 mmHg 26%
    01:00 +15°C° 0 mm 2 mps 684 mmHg 27%
    02:00 +15°C° 0 mm 1 mps 684 mmHg 27%
    03:00 +15°C° 0 mm 1 mps 684 mmHg 28%
    04:00 +14°C° 0 mm 1 mps 684 mmHg 29%
    05:00 +14°C° 0 mm 1 mps 684 mmHg 30%
    06:00 +15°C° 0 mm 1 mps 684 mmHg 29%
    07:00 +16°C° 0 mm 1 mps 685 mmHg 28%
    08:00 +18°C° 0 mm 1 mps 685 mmHg 26%
    09:00 +19°C° 0 mm 2 mps 686 mmHg 25%
    10:00 +20°C° 0 mm 3 mps 686 mmHg 23%
    11:00 +22°C° 0 mm 4 mps 686 mmHg 22%
    12:00 +23°C° 0 mm 5 mps 686 mmHg 21%
    13:00 +24°C° 0 mm 6 mps 686 mmHg 20%
    14:00 +26°C° 0 mm 7 mps 686 mmHg 19%
    15:00 +24°C° 0 mm 6 mps 685 mmHg 20%
    16:00 +23°C° 0 mm 6 mps 685 mmHg 22%
    17:00 +23°C° 0 mm 6 mps 685 mmHg 23%
    18:00 +21°C° 0 mm 5 mps 684 mmHg 27%
    19:00 +20°C° 0 mm 4 mps 684 mmHg 30%
    20:00 +19°C° 0 mm 4 mps 684 mmHg 34%
    21:00 +18°C° 0 mm 3 mps 684 mmHg 36%
    22:00 +18°C° 0 mm 3 mps 684 mmHg 37%
    23:00 +17°C° 0 mm 2 mps 684 mmHg 38%

    Tomorrow, 20 April, Saturday

    Time Temperature Precipitation Wind Pressure Humidity
    00:00 +17°C° 0 mm 3 mps 684 mmHg 38%
    01:00 +16°C° 0 mm 3 mps 683 mmHg 38%
    02:00 +16°C° 0 mm 3 mps 683 mmHg 37%
    03:00 +14°C° 0 mm 3 mps 683 mmHg 40%
    04:00 +14°C° 0 mm 2 mps 683 mmHg 42%
    05:00 +13°C° 0 mm 2 mps 683 mmHg 44%
    06:00 +14°C° 0 mm 2 mps 683 mmHg 41%
    07:00 +15°C° 0 mm 2 mps 684 mmHg 38%
    08:00 +16°C° 0 mm 3 mps 684 mmHg 35%
    09:00 +18°C° 0 mm 3 mps 685 mmHg 30%
    10:00 +19°C° 0 mm 3 mps 685 mmHg 25%
    11:00 +20°C° 0 mm 4 mps 685 mmHg 20%
    12:00 +21°C° 0 mm 4 mps 685 mmHg 17%
    13:00 +22°C° 0 mm 5 mps 685 mmHg 15%
    14:00 +23°C° 0 mm 6 mps 684 mmHg 13%
    15:00 +22°C° 0 mm 6 mps 684 mmHg 14%
    16:00 +22°C° 0 mm 6 mps 684 mmHg 16%
    17:00 +21°C° 0 mm 6 mps 683 mmHg 18%
    18:00 +20°C° 0 mm 6 mps 683 mmHg 22%
    19:00 +19°C° 0 mm 5 mps 684 mmHg 27%
    20:00 +17°C° 0 mm 5 mps 684 mmHg 32%
    21:00 +17°C° 0 mm 4 mps 684 mmHg 33%
    22:00 +15°C° 0 mm 4 mps 684 mmHg 34%
    23:00 +16°C° 0 mm 3 mps 684 mmHg 36%

    Day after tomorrow, 21 April, Sunday

    Time Temperature Precipitation Wind Pressure Humidity
    00:00 +14°C° 0 mm 3 mps 683 mmHg 37%
    01:00 +14°C° 0 mm 3 mps 683 mmHg 38%
    02:00 +13°C° 0 mm 3 mps 683 mmHg 40%
    03:00 +13°C° 0 mm 3 mps 683 mmHg 44%
    04:00 +12°C° 0 mm 3 mps 682 mmHg 49%
    05:00 +11°C° 0 mm 3 mps 682 mmHg 54%
    06:00 +12°C° 0 mm 3 mps 683 mmHg 51%
    07:00 +12°C° 0 mm 4 mps 683 mmHg 49%
    08:00 +13°C° 0 mm 4 mps 684 mmHg 47%
    09:00 +14°C° 0 mm 4 mps 684 mmHg 40%
    10:00 +17°C° 0 mm 4 mps 685 mmHg 32%
    11:00 +19°C° 0 mm 5 mps 685 mmHg 25%
    12:00 +20°C° 0 mm 5 mps 685 mmHg 24%
    13:00 +21°C° 0 mm 5 mps 684 mmHg 23%
    14:00 +22°C° 0 mm 6 mps 684 mmHg 22%
    15:00 +21°C° 0 mm 6 mps 684 mmHg 25%
    16:00 +20°C° 0 mm 6 mps 684 mmHg 28%
    17:00 +19°C° 0 mm 6 mps 684 mmHg 30%
    18:00 +17°C° 0 mm 6 mps 684 mmHg 31%
    19:00 +16°C° 0 mm 5 mps 684 mmHg 32%
    20:00 +15°C° 0 mm 5 mps 684 mmHg 33%
    21:00 +15°C° 0 mm 4 mps 684 mmHg 33%
    22:00 +14°C° 0 mm 4 mps 684 mmHg 32%
    23:00 +14°C° 0 mm 4 mps 684 mmHg 31%

    22 April, Monday

    Time Temperature Precipitation Wind Pressure Humidity
    00:00 +13°C° 0 mm 3 mps 684 mmHg 33%
    01:00 +12°C° 0 mm 3 mps 683 mmHg 35%
    02:00 +12°C° 0 mm 3 mps 683 mmHg 37%
    03:00 +11°C° 0 mm 3 mps 683 mmHg 38%
    04:00 +12°C° 0 mm 2 mps 683 mmHg 39%
    05:00 +10°C° 0 mm 2 mps 683 mmHg 40%
    06:00 +12°C° 0 mm 2 mps 684 mmHg 33%
    07:00 +14°C° 0 mm 2 mps 684 mmHg 26%
    08:00 +14°C° 0 mm 3 mps 685 mmHg 19%
    09:00 +16°C° 0 mm 3 mps 685 mmHg 16%
    10:00 +18°C° 0 mm 3 mps 685 mmHg 13%
    11:00 +20°C° 0 mm 4 mps 686 mmHg 11%
    12:00 +21°C° 0 mm 4 mps 685 mmHg 10%
    13:00 +22°C° 0 mm 4 mps 685 mmHg 10%
    14:00 +22°C° 0 mm 4 mps 685 mmHg 9%
    15:00 +22°C° 0 mm 5 mps 685 mmHg 10%
    16:00 +22°C° 0 mm 5 mps 685 mmHg 10%
    17:00 +22°C° 0 mm 5 mps 685 mmHg 11%
    18:00 +20°C° 0 mm 4 mps 685 mmHg 13%
    19:00 +19°C° 0 mm 3 mps 685 mmHg 15%
    20:00 +17°C° 0 mm 3 mps 684 mmHg 18%
    21:00 +17°C° 0 mm 3 mps 684 mmHg 17%
    22:00 +17°C° 0 mm 2 mps 684 mmHg 17%
    23:00 +16°C° 0 mm 2 mps 684 mmHg 16%

    23 April, Tuesday

    Time Temperature Precipitation Wind Pressure Humidity
    00:00 +16°C° 0 mm 2 mps 684 mmHg 17%
    01:00 +15°C° 0 mm 2 mps 684 mmHg 17%
    02:00 +15°C° 0 mm 2 mps 683 mmHg 17%
    03:00 +14°C° 0 mm 2 mps 684 mmHg 18%
    04:00 +13°C° 0 mm 3 mps 684 mmHg 20%
    05:00 +13°C° 0 mm 3 mps 684 mmHg 21%
    06:00 +14°C° 0 mm 3 mps 685 mmHg 19%
    07:00 +17°C° 0 mm 3 mps 685 mmHg 17%
    08:00 +18°C° 0 mm 3 mps 686 mmHg 15%
    09:00 +20°C° 0 mm 3 mps 686 mmHg 13%
    10:00 +21°C° 0 mm 3 mps 687 mmHg 11%
    11:00 +23°C° 0 mm 4 mps 687 mmHg 9%
    12:00 +25°C° 0 mm 4 mps 687 mmHg 9%
    13:00 +26°C° 0 mm 4 mps 686 mmHg 8%
    14:00 +26°C° 0 mm 4 mps 686 mmHg 8%
    15:00 +26°C° 0 mm 4 mps 686 mmHg 8%
    16:00 +25°C° 0 mm 4 mps 686 mmHg 8%
    17:00 +25°C° 0 mm 5 mps 685 mmHg 9%
    18:00 +23°C° 0 mm 4 mps 685 mmHg 9%
    19:00 +22°C° 0 mm 3 mps 685 mmHg 10%
    20:00 +20°C° 0 mm 2 mps 685 mmHg 11%
    21:00 +20°C° 0 mm 2 mps 685 mmHg 10%
    22:00 +19°C° 0 mm 2 mps 685 mmHg 9%
    23:00 +19°C° 0 mm 2 mps 685 mmHg 8%

    24 April, Wednesday

    Time Temperature Precipitation Wind Pressure Humidity
    00:00 +19°C° 0 mm 2 mps 685 mmHg 9%
    01:00 +18°C° 0 mm 2 mps 684 mmHg 11%
    02:00 +17°C° 0 mm 2 mps 684 mmHg 13%
    03:00 +17°C° 0 mm 2 mps 684 mmHg 16%
    04:00 +16°C° 0 mm 2 mps 684 mmHg 19%
    05:00 +16°C° 0 mm 2 mps 684 mmHg 22%
    06:00 +18°C° 0 mm 2 mps 685 mmHg 20%
    07:00 +19°C° 0 mm 3 mps 685 mmHg 18%
    08:00 +21°C° 0 mm 3 mps 686 mmHg 16%
    09:00 +24°C° 0 mm 3 mps 686 mmHg 14%
    10:00 +25°C° 0 mm 3 mps 686 mmHg 13%
    11:00 +27°C° 0 mm 4 mps 687 mmHg 11%
    12:00 +27°C° 0 mm 4 mps 686 mmHg 11%
    13:00 +28°C° 0 mm 4 mps 686 mmHg 11%
    14:00 +28°C° 0 mm 4 mps 685 mmHg 11%
    15:00 +28°C° 0 mm 3 mps 685 mmHg 11%
    16:00 +28°C° 0 mm 3 mps 685 mmHg 11%
    17:00 +28°C° 0 mm 3 mps 685 mmHg 11%
    18:00 +27°C° 0 mm 3 mps 685 mmHg 12%
    19:00 +26°C° 0 mm 2 mps 685 mmHg 12%
    20:00 +25°C° 0 mm 2 mps 685 mmHg 13%
    21:00 +24°C° 0 mm 2 mps 684 mmHg 13%
    22:00 +22°C° 0 mm 3 mps 684 mmHg 14%
    23:00 +22°C° 0 mm 3 mps 684 mmHg 15%
    Show more